Tracking 23582 objects as of 31-Jul-2021
HD Live streaming from Space Station
objects crossing your sky now

NINGXIA-1 8

Track NINGXIA-1 8 now!
10-day predictions


NORAD ID: 49020
Int'l Code: 2021-064C
Perigee: 865.5 km
Apogee: 876.9 km
Inclination: 45.0 °
Period: 102.2 minutes
Semi major axis: 7242 km
RCS: Unknown
Launch date: July 9, 2021
Source: People's Republic of China (PRC)
Launch site: Taiyaun Space Center, China (TSC)
aabbcc
Your satellite tracking list
Your tracking list is empty




NASA's NSSDC Master Catalog

Two Line Element Set (TLE):
1 49020U 21064C   21212.24855638 -.00000107  00000-0  14668-4 0  9995
2 49020  44.9978 353.5377 0007903 356.7363   3.3480 14.08627893  3068
Source of the keplerian elements: AFSPC